QTR71 OTHH-EDDF

Flight info

Callsign QTR71
Flight time N/A
Altitude 28000
Route DATRI L564 BAT/N0492F290 L564 MIGMA/N0479F280 M628 AMBAG/N0485F400 M321 KSA T503 OVANO L768 FIRAS R655 KTN R785 NIKAS L619 VESAR UB545 MUT UL619 MAKOL DCT ARGES DCT OXDOC DCT BEGLA DCT UBUXI DCT DITIS DCT RAPET T170 GAPLA/N0418F240 T178 KERAX KERAX5A
Aircraft A359/H-SDE2E3GHIJ1J3J4J5LM1ORWXY/LB1D1

Departure

Time N/A
Airport Hamad International Airport (OTHH)

Arrival

Time 2026-05-06 17:41
Airport Frankfurt Main Airport (EDDF)
Time Latitude Longitude Altitude Speed Heading
2026-05-06 17:03 49.91619 12.95323 39730 ft 456 kts 301°
2026-05-06 17:03 49.95226 12.87328 39805 ft 454 kts 301°
2026-05-06 17:04 49.98860 12.79246 39756 ft 453 kts 301°
2026-05-06 17:04 50.02446 12.71250 39762 ft 452 kts 301°
2026-05-06 17:05 50.06034 12.63221 39759 ft 452 kts 301°
2026-05-06 17:05 50.09627 12.55157 39760 ft 452 kts 301°
2026-05-06 17:06 50.13199 12.47117 39757 ft 453 kts 301°
2026-05-06 17:06 50.16793 12.39004 39754 ft 453 kts 301°
2026-05-06 17:07 50.19782 12.30487 39760 ft 446 kts 288°
2026-05-06 17:07 50.21989 12.21391 39761 ft 446 kts 286°
2026-05-06 17:08 50.24061 12.12270 39761 ft 446 kts 285°
2026-05-06 17:08 50.26121 12.03141 39767 ft 447 kts 286°
2026-05-06 17:09 50.28219 11.93940 39771 ft 447 kts 286°
2026-05-06 17:09 50.30313 11.84806 39774 ft 447 kts 286°
2026-05-06 17:10 50.32416 11.75599 39777 ft 447 kts 286°
2026-05-06 17:10 50.34493 11.66458 39772 ft 447 kts 286°
2026-05-06 17:11 50.36578 11.57237 39767 ft 447 kts 285°
2026-05-06 17:11 50.38647 11.48046 39767 ft 447 kts 285°
2026-05-06 17:12 50.40736 11.38720 39758 ft 447 kts 285°
2026-05-06 17:12 50.42813 11.29424 39758 ft 448 kts 285°
2026-05-06 17:13 50.44507 11.21801 39758 ft 448 kts 285°
2026-05-06 17:13 50.46880 11.11064 39618 ft 427 kts 285°
2026-05-06 17:13 50.47833 11.06757 39258 ft 409 kts 285°
2026-05-06 17:14 50.48756 11.02580 38832 ft 394 kts 284°
2026-05-06 17:14 50.49638 10.98571 38339 ft 385 kts 284°
2026-05-06 17:14 50.50504 10.94603 37329 ft 384 kts 284°
2026-05-06 17:14 50.51362 10.90635 36056 ft 390 kts 283°
2026-05-06 17:15 50.52241 10.86548 34601 ft 401 kts 283°
2026-05-06 17:15 50.53144 10.82345 33101 ft 411 kts 283°
2026-05-06 17:15 50.54074 10.78055 31739 ft 414 kts 284°
2026-05-06 17:15 50.55037 10.73775 30469 ft 414 kts 285°
2026-05-06 17:16 50.56014 10.69512 29148 ft 414 kts 285°
2026-05-06 17:16 50.56991 10.65268 27806 ft 412 kts 286°
2026-05-06 17:16 50.57961 10.61036 26482 ft 410 kts 286°
2026-05-06 17:16 50.58923 10.56820 25247 ft 407 kts 286°
2026-05-06 17:17 50.59868 10.52671 24053 ft 403 kts 286°
2026-05-06 17:17 50.60801 10.48547 22938 ft 397 kts 287°
2026-05-06 17:17 50.61731 10.44420 22153 ft 397 kts 287°
2026-05-06 17:17 50.62644 10.40360 21817 ft 388 kts 287°
2026-05-06 17:18 50.63493 10.36415 21759 ft 371 kts 283°
2026-05-06 17:18 50.63999 10.32561 21763 ft 352 kts 274°
2026-05-06 17:18 50.64099 10.28798 21763 ft 334 kts 264°
2026-05-06 17:18 50.63819 10.25278 21761 ft 317 kts 255°
2026-05-06 17:19 50.63180 10.21927 21778 ft 326 kts 246°
2026-05-06 17:19 50.62222 10.18620 21777 ft 333 kts 241°
2026-05-06 17:19 50.61141 10.15382 21771 ft 335 kts 239°
2026-05-06 17:19 50.60008 10.12182 21774 ft 335 kts 238°
2026-05-06 17:20 50.58853 10.08977 21774 ft 336 kts 238°
2026-05-06 17:20 50.57721 10.05828 21774 ft 336 kts 238°
2026-05-06 17:20 50.56554 10.02553 21538 ft 337 kts 239°
2026-05-06 17:20 50.55412 9.99318 20959 ft 339 kts 239°
2026-05-06 17:21 50.54327 9.95920 20097 ft 350 kts 245°
2026-05-06 17:21 50.53988 9.94529 19785 ft 355 kts 249°
2026-05-06 17:21 50.53379 9.91675 19131 ft 359 kts 250°
2026-05-06 17:21 50.52669 9.87974 18307 ft 349 kts 252°
2026-05-06 17:22 50.52029 9.84389 17405 ft 340 kts 252°
2026-05-06 17:22 50.51414 9.80851 16497 ft 331 kts 253°
2026-05-06 17:22 50.50811 9.77386 15598 ft 324 kts 252°
2026-05-06 17:22 50.50215 9.74006 14742 ft 318 kts 252°
2026-05-06 17:23 50.49644 9.70723 13900 ft 312 kts 253°
2026-05-06 17:23 50.49087 9.67449 13022 ft 307 kts 253°
2026-05-06 17:23 50.48537 9.64234 12104 ft 302 kts 253°
2026-05-06 17:23 50.47996 9.61082 11327 ft 295 kts 253°
2026-05-06 17:24 50.47647 9.59053 10995 ft 285 kts 253°
2026-05-06 17:24 50.47144 9.56149 10803 ft 269 kts 252°
2026-05-06 17:24 50.46622 9.53383 10781 ft 264 kts 251°
2026-05-06 17:24 50.46086 9.50601 10781 ft 266 kts 251°
2026-05-06 17:25 50.45552 9.47811 10786 ft 267 kts 251°
2026-05-06 17:25 50.45021 9.45025 10791 ft 267 kts 251°
2026-05-06 17:25 50.44452 9.42258 10782 ft 266 kts 246°
2026-05-06 17:25 50.43379 9.39932 10754 ft 263 kts 219°
2026-05-06 17:26 50.41820 9.38631 10428 ft 253 kts 194°
2026-05-06 17:26 50.40084 9.38392 9765 ft 252 kts 179°
2026-05-06 17:26 50.38302 9.38536 8755 ft 260 kts 177°
2026-05-06 17:26 50.36477 9.38746 7760 ft 266 kts 176°
2026-05-06 17:27 50.34616 9.38974 6771 ft 270 kts 176°
2026-05-06 17:27 50.32728 9.39217 5786 ft 273 kts 177°
2026-05-06 17:27 50.30831 9.39474 4860 ft 273 kts 177°
2026-05-06 17:27 50.28976 9.39739 4261 ft 261 kts 176°
2026-05-06 17:28 50.27236 9.39993 4009 ft 238 kts 177°
2026-05-06 17:28 50.25656 9.40243 3987 ft 223 kts 176°
2026-05-06 17:28 50.24135 9.40198 3975 ft 211 kts 197°
2026-05-06 17:28 50.22946 9.39197 4012 ft 186 kts 220°
2026-05-06 17:29 50.22019 9.37822 4004 ft 185 kts 231°
2026-05-06 17:29 50.21380 9.36077 4005 ft 183 kts 247°
2026-05-06 17:29 50.20923 9.34234 3996 ft 182 kts 250°
2026-05-06 17:29 50.20506 9.32368 4004 ft 183 kts 251°
2026-05-06 17:30 50.20087 9.30436 4008 ft 191 kts 251°
2026-05-06 17:30 50.19671 9.28490 4000 ft 192 kts 251°
2026-05-06 17:30 50.19249 9.26495 3998 ft 191 kts 251°
2026-05-06 17:30 50.18853 9.24616 3985 ft 174 kts 251°
2026-05-06 17:31 50.18490 9.22895 3996 ft 163 kts 251°
2026-05-06 17:31 50.18140 9.21231 4001 ft 161 kts 251°
2026-05-06 17:31 50.17850 9.19550 4025 ft 161 kts 264°
2026-05-06 17:31 50.17679 9.17845 4013 ft 158 kts 255°
2026-05-06 17:32 50.17457 9.16172 3998 ft 158 kts 258°
2026-05-06 17:32 50.17219 9.14402 4014 ft 173 kts 256°
2026-05-06 17:32 50.16907 9.12584 4006 ft 177 kts 252°
2026-05-06 17:32 50.16491 9.10771 4004 ft 178 kts 248°
2026-05-06 17:33 50.16022 9.08986 4006 ft 177 kts 247°
2026-05-06 17:33 50.15556 9.07200 4007 ft 178 kts 249°
2026-05-06 17:33 50.15113 9.05389 4011 ft 178 kts 249°
2026-05-06 17:33 50.14683 9.03569 4010 ft 178 kts 250°
2026-05-06 17:34 50.14261 9.01776 4022 ft 177 kts 250°
2026-05-06 17:34 50.13829 8.99950 4029 ft 177 kts 250°
2026-05-06 17:34 50.13407 8.98172 4032 ft 178 kts 249°
2026-05-06 17:34 50.12978 8.96367 4030 ft 178 kts 249°
2026-05-06 17:35 50.12547 8.94555 4030 ft 178 kts 249°
2026-05-06 17:35 50.12116 8.92740 4032 ft 179 kts 250°
2026-05-06 17:35 50.11685 8.90922 4030 ft 178 kts 249°
2026-05-06 17:36 50.10818 8.87276 4035 ft 179 kts 249°
2026-05-06 17:36 50.10385 8.85454 4007 ft 179 kts 249°
2026-05-06 17:36 50.10098 8.84248 3896 ft 179 kts 250°
2026-05-06 17:37 50.09041 8.79803 3284 ft 181 kts 250°
2026-05-06 17:37 50.08603 8.77963 3027 ft 182 kts 250°
2026-05-06 17:37 50.08163 8.76118 2775 ft 181 kts 251°
2026-05-06 17:37 50.07730 8.74298 2532 ft 177 kts 252°
2026-05-06 17:38 50.07302 8.72499 2301 ft 177 kts 253°
2026-05-06 17:38 50.06873 8.70694 2052 ft 178 kts 253°
2026-05-06 17:38 50.06688 8.69913 1942 ft 177 kts 252°
2026-05-06 17:38 50.06420 8.68784 1789 ft 177 kts 252°
2026-05-06 17:39 50.05992 8.66993 1561 ft 177 kts 253°
2026-05-06 17:39 50.05561 8.65175 1302 ft 178 kts 252°
2026-05-06 17:39 50.05136 8.63394 1051 ft 175 kts 252°
2026-05-06 17:39 50.04728 8.61688 816 ft 161 kts 252°
2026-05-06 17:40 50.04360 8.60139 625 ft 148 kts 252°
2026-05-06 17:40 50.04239 8.59631 544 ft 144 kts 252°
2026-05-06 17:40 50.03687 8.57325 366 ft 128 kts 251°
2026-05-06 17:40 50.03443 8.56298 360 ft 61 kts 249°
2026-05-06 17:41 50.03385 8.56054 362 ft 15 kts 250°
2026-05-06 17:41 50.03328 8.55800 356 ft 26 kts 256°
2026-05-06 17:41 50.03318 8.55470 357 ft 45 kts 276°
2026-05-06 17:41 50.03337 8.55288 349 ft 0 kts 280°